Location: Düngen
(52.0952°N, 10.0219°E)
Time: 19:52:27
(UTC+00:00)

SeaSat 1 - Pass Details

Date: 11 March 2026
Orbit: 736 x 740 km, 108.0° (Epoch: 20 April)

Event Time Altitude Azimuth Distance (km) Brightness Sun altitude
Exits shadow 18:53:27 17° 142° (SE) 1,789 4.0 -15.5°
Maximum altitude 18:57:11 82° 58° (ENE) 753 2.4 -16.0°
Drops below altitude 10° 19:02:06 10° 330° (NNW) 2,258 5.6 -16.7°
Sets 19:04:22 0° 330° (NNW) 3,186 6.5 -17.1°
